User: anonymous   Login
Location: Oshawa
(43.9000°N, 78.8670°W)
Time: 01:12:57
(UTC-04:00)
Language:

IDEFIX/ARIANE 42P - Orbit

View from above orbital plane
View from above orbital plane
View from above satellite
View from above satellite

Ground track
Ground track

The orbit data is extracted from the following two-line orbital elements,

1 27422U 02021B   14295.17321959  .00000278  00000-0  12601-3 0  6256
2 27422 098.2860 331.5375 0011852 222.9500 177.8412 14.29067050648277
Epoch (UTC): 22 October 2014 04:09:26
Eccentricity: 0.0011852
inclination: 98.2860°
perigee height: 786 km
apogee height: 803 km
right ascension of ascending node: 331.5375°
argument of perigee: 222.9500°
revolutions per day: 14.29067050
mean anomaly at epoch: 177.8412°
orbit number at epoch: 64827

The dashed part of the orbit path shows where the satellite is in the earth's shadow,  

DLR